Location: Bindella
(45.2333°N, 11.2500°E)
Time: 06:40:56
(UTC+00:00)

Daily predictions for brighter satellites

Satellite Brightness Start Highest point End
(mag) Time Altitude Azimuth Time Altitude Azimuth Time Altitude Azimuth
DMSP B5D2-2 4.1 19:00:54 10° NNE 19:06:05 63° ESE 19:11:16 10° S
OE (NEXTSAT) 4.3 19:04:58 10° W 19:08:28 88° SSW 19:11:59 10° ESE
ATLAS 5 CENTAUR R/B 2.5 19:03:04 10° NW 19:08:42 69° NE 19:15:18 10° SE
SL-4 R/B 3.0 19:05:48 10° S 19:09:03 23° SE 19:12:07 10° E
SL-08 RB Rocket 4.3 19:08:29 10° S 19:13:02 62° W 19:17:40 10° NNW
MetOp-A 4.2 19:09:26 10° SSE 19:14:47 87° ENE 19:20:11 10° NNW
Cosmos 1833 Rocket 3.3 19:11:03 10° S 19:16:04 35° ESE 19:21:07 10° NE
Cosmos 1697 Rocket 3.4 19:10:58 10° NNW 19:16:12 38° NE 19:21:19 10° ESE
Cosmos 2228 Rocket 3.0 19:13:32 10° N 19:17:59 76° E 19:22:22 10° SSE
Cosmos 1515 Rocket 4.4 19:16:14 10° NNW 19:20:36 53° W 19:24:56 10° S
Cosmos 389 Rocket 2.8 19:17:38 10° N 19:20:58 44° ENE 19:24:17 10° SSE
SPOT 3 Rocket 3.6 19:15:49 10° SSE 19:21:00 70° ENE 19:26:12 10° N
Cosmos 1633 Rocket 4.5 19:18:13 10° SE 19:21:26 20° E 19:24:40 10° NE
Cosmos 1812 3.2 19:19:12 10° N 19:22:53 42° ENE 19:26:32 10° SSE
Cosmos 2251 Rocket 3.7 19:17:45 10° SSW 19:22:59 78° WNW 19:28:19 10° NNE
Cosmos 1727 Rocket 4.1 19:16:42 10° N 19:23:05 84° E 19:29:27 10° S
Cosmos 1656 3.6 19:22:26 10° NNW 19:27:56 79° ENE 19:33:29 10° SSE
Cosmos 1633 4.4 19:27:24 10° SW 19:30:38 33° WNW 19:33:53 10° N
IRIDIUM 104 4.3 19:26:00 10° S 19:31:09 67° E 19:36:21 10° N
Resurs 01 Rocket 1.7 19:27:47 10° SSE 19:32:08 61° ENE 19:36:31 10° N
Cosmos 1707 Rocket 4.2 19:28:15 10° N 19:32:20 38° ENE 19:35:44 14° SE
Cosmos 220 Rocket 4.1 19:28:19 10° NNW 19:32:29 58° ENE 19:36:05 13° SE
Cosmos 972 Rocket 4.1 19:29:21 10° NNW 19:34:21 74° WSW 19:39:13 10° S
FALCON 9 DEB 4.2 19:34:19 10° SSW 19:37:14 25° SE 19:40:10 10° ENE
Cosmos 1441 Rocket 3.2 19:34:01 10° S 19:37:46 61° E 19:41:30 10° NNE
IRIDIUM 114 4.3 19:35:05 10° S 19:40:18 81° E 19:45:32 10° N
Cosmos 614 Rocket 3.9 19:36:21 10° S 19:41:27 68° ESE 19:46:38 10° NNE
NOSS 3-2 (A) 4.4 19:38:11 10° SSE 19:42:25 22° ESE 19:46:59 10° ENE
IGS 5A 4.2 19:41:07 16° SE 19:43:50 35° ENE 19:47:38 10° N
USA 267 3.2 19:41:38 10° NE 19:48:12 76° SE 19:54:45 10° SW
IRIDIUM 103 4.4 19:44:12 10° S 19:49:25 85° W 19:54:40 10° N
GP-B 3.9 19:46:50 10° NNE 19:50:51 33° E 19:53:14 20° SE
Cosmos 1821 Rocket 3.9 19:45:31 10° S 19:51:37 79° E 19:57:51 10° N
COSMOS 2406 3.3 19:48:08 10° SSW 19:53:53 84° WNW 19:59:41 10° NNE
Shenzhou-11 Module 1.9 19:52:55 10° W 19:55:10 39° S 19:55:30 36° SSE
CZ-2C R/B 4.2 19:52:06 10° N 19:56:43 65° WNW 20:01:12 10° SSW
SL-16 R/B 4.1 19:54:48 10° N 19:58:32 18° NE 20:02:16 10° E
Intercosmos 25 3.3 19:54:19 10° N 19:58:47 79° W 20:01:25 16° S
Cosmos 1862 Rocket 4.3 19:54:43 10° N 19:58:52 36° ENE 20:01:01 23° SE
ERS-1 Rocket 4.0 19:56:09 19° ESE 19:58:55 31° ENE 20:03:20 10° N
Lacrosse 5 3.6 19:57:08 10° NW 20:01:25 26° NNE 20:05:42 10° ENE
Cosmos 1862 4.3 19:59:09 10° SSW 20:03:05 50° WNW 20:07:03 10° N
Sich 1 3.1 19:59:30 10° S 20:03:55 82° W 20:08:24 10° N
Cosmos 2369 3.7 19:58:24 10° NNW 20:04:11 77° ENE 20:08:05 21° SSE
BREEZE-M DEB (TANK) 3.4 20:06:02 10° WNW 20:08:41 32° N 20:09:54 16° NE
Cosmos 1818 3.6 20:03:23 10° NW 20:08:52 78° WSW 20:12:24 22° SSE
Cosmos 2082 Rocket 2.3 20:03:29 10° S 20:09:00 55° ESE 20:14:34 10° NNE
Cosmos 1954 Rocket 4.4 20:06:50 15° S 20:10:49 43° ESE 20:15:51 10° NNE
Cosmos 2278 3.9 20:07:45 10° NNW 20:13:28 63° ENE 20:16:44 25° SE
Cosmos 2123 Rocket 4.0 20:07:26 10° N 20:13:40 72° E 20:18:06 20° SSE
Cosmos 1535 Rocket 4.4 20:08:44 10° S 20:14:45 69° E 20:20:50 10° NNE
Spot 2 Rocket 3.5 20:11:25 22° SSE 20:14:47 77° ENE 20:19:55 10° N
Meteor 2-20 4.4 20:09:15 10° N 20:15:27 84° E 20:20:07 18° S
Cosmos 2322 Rocket 4.0 20:16:57 10° N 20:21:09 21° NE 20:24:25 13° E
Meteor 1-4 Rocket 2.3 20:17:47 10° N 20:21:17 83° E 20:22:26 39° SSE
Cosmos 1184 Rocket 2.9 20:21:01 45° SE 20:21:32 51° E 20:24:46 10° NNE
CARTOSAT-1 4.0 20:20:05 31° ESE 20:21:40 45° ENE 20:25:48 10° N
Cosmos 1190 Rocket 4.0 20:16:31 10° SSW 20:21:48 89° ESE 20:27:08 10° NNE
Terra 2.8 20:21:08 25° ESE 20:22:51 32° ENE 20:27:03 10° N
USA 234 3.3 20:18:46 22° ESE 20:23:13 77° NE 20:29:46 10° NW
Cosmos 407 Rocket 3.8 20:19:26 10° SSW 20:24:46 72° WNW 20:30:04 10° NNE
Cosmos 1605 Rocket 4.1 20:21:08 22° SSE 20:25:05 56° E 20:31:02 10° NNE
Cosmos 1933 Rocket 4.2 20:24:16 32° ESE 20:25:08 35° E 20:29:11 10° NNE
Cosmos 1666 Rocket 3.7 20:21:27 11° SSW 20:25:33 73° W 20:29:53 10° N
Meteor 1-20 Rocket 4.4 20:23:25 23° SSE 20:26:55 55° E 20:32:37 10° NNE
Cosmos 1238 Rocket 3.1 20:28:02 33° ENE 20:28:02 33° ENE 20:30:15 10° NNE
Okean 1 4.1 20:27:08 10° N 20:30:51 34° ENE 20:31:27 32° E
Cosmos 1602 4.4 20:31:37 35° E 20:31:43 35° E 20:35:19 10° NNE
Meteor 1-27 Rocket 4.3 20:26:14 10° NNW 20:32:03 59° W 20:36:54 15° S
Cosmos 2360 Rocket 4.3 20:31:43 10° N 20:35:06 16° NE 20:38:28 10° ENE
Cosmos 1437 Rocket 4.0 20:32:07 10° NNE 20:35:18 24° ENE 20:35:27 24° ENE
CZ-4B DEB 4.3 20:35:36 60° ESE 20:35:59 67° ENE 20:39:18 10° N
SPOT 5 2.8 20:35:54 40° SE 20:37:08 55° ENE 20:41:24 10° N
USA 238 DEB 3.7 20:31:21 10° SSW 20:37:46 56° ESE 20:44:26 10° NE
USA 238 3.7 20:31:29 10° SSW 20:37:52 55° ESE 20:44:32 10° NE
BREEZE-M DEB (TANK) 4.2 20:36:41 10° W 20:38:06 12° WSW 20:39:00 11° SW
SPOT 1/Viking Rocket 3.6 20:39:53 28° S 20:42:41 76° WSW 20:47:56 10° NNW
Cosmos 1980 Rocket 2.1 20:38:55 10° NNW 20:44:38 86° WSW 20:47:05 36° SSE
Cosmos 1703 Rocket 4.1 20:42:27 10° N 20:46:34 40° ENE 20:47:05 38° E
Cosmos 2242 Rocket 3.7 20:42:15 10° N 20:46:38 55° ENE 20:47:29 47° ESE
SL-4 R/B 2.0 20:44:30 10° WSW 20:48:24 71° NNW 20:51:35 13° ENE
Cosmos 405 Rocket 2.6 20:49:22 58° E 20:49:22 58° E 20:52:57 10° NNE
Cosmos 1763 Rocket 4.2 20:44:28 10° N 20:49:32 42° ENE 20:51:08 33° ESE
BREEZE-M DEB (TANK) 3.5 20:46:44 10° WNW 20:49:44 53° N 20:58:14 10° E
Genesis I 3.0 20:46:21 10° NW 20:50:14 90° SSW 20:50:44 67° SE
Cosmos 1140 Rocket 4.1 20:45:20 10° SW 20:50:28 56° WNW 20:55:40 10° NNE
ATLAS 5 CENTAUR R/B 4.0 20:48:17 10° WNW 20:53:11 26° WSW 20:57:17 15° SSW
USA 32 4.2 20:53:02 24° SSW 20:56:12 72° W 21:01:27 10° N
Cosmos 1633 Rocket 4.3 20:55:05 12° SW 20:58:55 39° WNW 21:03:06 10° N
Cosmos 1833 Rocket 4.1 20:54:41 10° SW 20:59:55 39° NW 21:05:12 10° NNE
Cosmos 1697 Rocket 3.8 20:55:03 10° NW 21:00:07 35° WSW 21:03:04 21° SSW
Cosmos 1153 Rocket 4.4 21:03:26 38° S 21:05:55 74° E 21:12:05 10° NNE
CENTAUR R/B 2.6 21:04:46 42° SSE 21:06:16 51° ESE 21:12:52 10° NE
Cosmos 1867 3.8 21:00:55 10° SW 21:06:20 72° NW 21:11:49 10° NNE
Meteor 1-18 Rocket 4.1 21:02:31 10° N 21:08:09 86° E 21:09:49 47° SSE
Okean 1-7 3.0 21:04:00 10° N 21:08:18 60° E 21:08:30 60° E
Resurs 01 Rocket 4.2 21:06:39 10° WSW 21:09:01 14° W 21:11:24 10° WNW
FALCON 9 DEB 3.9 21:10:39 10° WSW 21:14:05 53° NNW 21:15:22 33° NNE
Cosmos 1850 Rocket 4.0 21:14:19 56° SE 21:15:04 62° ESE 21:20:18 10° NNE
Meteor 2-4 Rocket 3.8 21:12:13 10° N 21:17:51 58° ENE 21:18:53 50° ESE
Cosmos 1515 3.8 21:14:51 10° N 21:18:22 73° NNE 21:18:22 73° NNE
Cosmos 44 4.4 21:17:22 10° NNW 21:21:53 36° NE 21:23:09 31° ENE
ATLAS 5 CENTAUR R/B 3.3 21:19:29 10° NNW 21:22:09 33° NE 21:23:25 28° E
USA 267 4.3 21:24:49 10° NE 21:30:59 46° NNW 21:37:08 10° W
NOSS 3-2 (A) 3.6 21:26:46 10° SW 21:32:28 69° NW 21:39:00 10° NE
Cosmos 921 Rocket 3.8 21:30:45 10° NNW 21:34:41 39° WSW 21:34:50 38° WSW
ERS-1 Rocket 4.1 21:36:08 29° SW 21:37:38 35° W 21:42:14 10° NNW
NOSS 3-2 (C) 3.2 21:35:51 38° SSW 21:38:16 86° SE 21:44:48 10° NE
Cosmos 841 Rocket 3.6 21:36:24 10° NNW 21:41:35 61° ENE 21:42:00 58° E
Cosmos 540 Rocket 3.6 21:37:54 10° NNW 21:43:02 60° ENE 21:43:22 58° E
SL-16 R/B 2.0 21:37:49 10° NNW 21:43:33 85° ENE 21:44:17 68° SE
Lacrosse 5 1.8 21:40:01 10° NW 21:45:06 73° NE 21:45:31 68° ENE
Cosmos 468 Rocket 4.2 21:39:56 10° NNW 21:45:10 60° WSW 21:45:45 56° SW
Cosmos 1741 Rocket 4.1 21:48:23 53° SW 21:49:30 72° WNW 21:54:48 10° NNE
Cosmos 1570 Rocket 3.9 21:47:33 10° NNW 21:52:54 78° ENE 21:53:10 75° ESE
Cosmos 2082 Rocket 4.1 21:48:37 10° WSW 21:53:27 27° NW 21:58:15 10° N
Tsikada Rocket 4.3 21:47:49 10° N 21:54:00 51° ENE 21:54:55 48° ESE
Cosmos 2219 Rocket 4.0 21:50:02 10° N 21:54:24 22° NE 21:56:38 18° ENE
Cosmos 2208 Rocket 4.0 21:49:43 10° NNW 21:55:00 68° ENE 21:55:10 67° E
Cosmos 1814 Rocket 4.0 21:50:11 10° NNW 21:55:22 65° ENE 21:55:32 64° ENE
Cosmos 2237 4.4 21:54:16 10° NNW 21:59:55 58° ENE 22:00:34 55° E
Terra 3.0 22:00:02 30° WSW 22:00:33 31° W 22:04:48 10° NNW
Cosmos 2322 Rocket 2.1 22:00:10 10° NNW 22:05:53 80° WSW 22:06:13 76° SSW
USA 234 4.0 22:06:06 34° SW 22:06:35 34° SW 22:12:28 10° WNW
Cosmos 2100 Rocket 4.2 22:05:35 45° SW 22:07:18 62° WNW 22:13:24 10° N
Meteor 1-11 Rocket 3.6 22:09:09 78° ESE 22:09:17 78° E 22:15:02 10° NNE
Cosmos 1869 Rocket 4.5 22:13:01 42° WNW 22:13:01 42° WNW 22:17:16 10° N
Cosmos 1242 Rocket 4.5 22:10:14 10° N 22:12:07 27° NNE 22:12:07 27° NNE
Cosmos 2360 Rocket 2.1 22:14:26 10° NNW 22:20:08 75° ENE 22:20:19 74° E
Geosat 4.2 22:20:48 60° W 22:20:48 60° W 22:25:26 10° NW
COSMOS 2428 4.1 22:16:01 10° N 22:21:00 29° NE 22:22:37 26° E
ATLAS 3B R/B 2.5 22:21:12 66° SE 22:21:16 66° ESE 22:27:50 10° NE
Iridium 4 Rocket 4.2 22:21:45 38° WNW 22:21:45 38° WNW 22:25:28 10° NNW
ALOS 2 3.3 22:27:44 49° NNE 22:27:44 49° NNE 22:31:10 10° N
Cosmos 1980 Rocket 4.4 22:25:20 10° WNW 22:27:42 13° W 22:28:51 12° WSW
Cosmos 1725 Rocket 3.9 22:27:19 69° SSW 22:28:06 81° W 22:34:29 10° N
SL-4 R/B 3.9 22:25:04 10° WNW 22:27:13 24° NW 22:27:13 24° NW
Nimbus 7 Rocket 4.3 22:26:27 10° NNE 22:32:15 69° E 22:32:15 69° E
SL-08 R/B 4.4 22:32:18 66° SW 22:32:59 73° W 22:39:05 10° N
Cosmos 1536 4.2 22:34:39 38° NNW 22:34:39 38° NNW 22:37:16 10° N
Cosmos 1674 Rocket 4.4 22:30:03 10° N 22:33:13 47° N 22:33:13 47° N
Cosmos 1666 4.5 22:37:32 30° NNW 22:37:32 30° NNW 22:39:45 10° N
Cosmos 2333 Rocket 2.8 22:35:03 10° NNW 22:40:38 47° ENE 22:41:19 45° ENE
Cosmos 2016 Rocket 4.4 22:39:51 47° WSW 22:41:07 55° WNW 22:47:22 10° N
Cosmos 2061 Rocket 4.4 22:41:22 47° WSW 22:42:31 53° WNW 22:48:36 10° N
Lacrosse 4 Rocket 3.3 22:45:23 25° NE 22:45:23 25° NE 22:47:15 10° NE
Cosmos 2237 Rocket 4.3 22:40:25 10° N 22:44:28 20° NE 22:47:32 13° E
Cosmos 1733 Rocket 4.1 22:50:59 43° NW 22:50:59 43° NW 22:54:21 10° N
Meteor 2-11 Rocket 4.4 22:51:22 71° E 22:51:22 71° E 22:57:27 10° NNE
Cosmos 1066 Rocket 4.4 22:48:18 10° NNW 22:53:46 63° W 22:53:46 63° W
Meteor 1-23 Rocket 4.4 22:50:01 10° NNW 22:55:43 65° W 22:55:43 65° W
Thor Agena Rocket 4.2 22:51:56 10° N 22:56:45 45° WNW 22:57:00 45° WNW
CENTAUR R/B 3.7 22:51:50 13° WSW 22:57:07 41° NW 23:03:57 10° NNE
Cosmos 968 Rocket 4.0 22:59:01 52° NE 22:59:01 52° NE 23:03:01 10° NNE
Cosmos 2233 Rocket 4.3 23:14:31 54° WSW 23:15:11 56° WNW 23:21:26 10° N
Cosmos 1464 Rocket 4.1 23:15:36 60° E 23:15:44 60° E 23:21:50 10° NNE
Cosmos 2227 Rocket 4.1 23:22:42 17° E 23:22:42 17° E 23:25:41 10° ENE
Helios 1B rocket 4.4 23:19:49 10° NNE 23:21:48 23° NE 23:21:48 23° NE
Meteor 1-21 4.3 23:19:33 10° N 23:25:21 70° ENE 23:25:21 70° ENE
SL-16 R/B 4.3 23:23:49 10° WNW 23:26:08 14° W 23:26:08 14° W
Lacrosse 5 4.1 23:23:41 10° WNW 23:24:41 14° W 23:24:41 14° W
Cosmos 2322 4.1 23:24:46 10° NNW 23:29:31 53° WNW 23:29:31 53° WNW
Nadezhda 4 Rocket 4.1 23:31:13 10° N 23:37:28 63° E 23:38:04 60° ESE
Cosmos 2219 Rocket 2.3 23:33:16 10° NNW 23:38:19 66° WNW 23:38:19 66° WNW
Cosmos 1513 Rocket 4.4 23:42:38 79° SW 23:43:00 84° W 23:49:29 10° N
Cosmos 1975 Rocket 4.1 23:39:14 10° NNW 23:42:25 45° NNW 23:42:25 45° NNW
Cosmos 2034 Rocket 3.9 23:43:53 70° ESE 23:44:12 71° E 23:50:29 10° NNE
Okean 2 Rocket 4.3 23:45:22 39° NE 23:45:22 39° NE 23:48:35 10° NNE
Cosmos 1503 Rocket 4.2 23:45:55 70° NNW 23:45:55 70° NNW 23:50:57 10° NNE
Cosmos 1072 Rocket 4.4 23:46:51 74° W 23:47:02 74° W 23:53:11 10° N
SL-16 R/B 3.9 23:46:15 21° ESE 23:49:21 32° ENE 23:54:47 10° N
Cosmos 1092 Rocket 4.5 23:45:35 10° N 23:51:40 51° ENE 23:52:45 46° ESE
Sich 1 Rocket 4.4 23:55:31 48° N 23:55:31 48° N 23:58:43 10° N
CZ-2D R/B 3.8 23:50:10 10° NE 23:54:27 23° E 23:54:54 23° E
SL-16 R/B 4.2 23:50:10 10° N 23:54:48 25° NE 23:59:24 10° ESE
